Regional Weather Roundup
Issued by NWS

Home | Current Version | Previous Version | Graphics & Text | Print | Product List | Glossary On
Versions: 1 2 3 4 5 6 7 8 9 10 11 12 13 14 15 16 17 18 19 20 21 22 23 24 25 26 27 28 29 30 31 32 33 34 35 36 37 38 39 40 41 42 43 44 45 46 47 48 49 50
000
ASUS45 KTFX 011510
RWRMT
MONTANA REGIONAL WEATHER ROUNDUP
NATIONAL WEATHER SERVICE GREAT FALLS MT
900 AM MDT SAT AUG 01 2015

NOTE: "FAIR" INDICATES FEW OR NO CLOUDS BELOW 12000 FEET WITH NO
SIGNIFICANT WEATHER AND/OR OBSTRUCTIONS TO VISIBILITY.

MTZ001>007-043-011600-
WEST OF THE DIVIDE

CITY           SKY/WX    TMP DP  RH WIND       PRES   REMARKS
KALISPELL      SUNNY     68  40  35 NE3       30.04R
MISSOULA       SUNNY     62  38  40 SE3       30.12S
BUTTE          SUNNY     60  38  43 CALM      30.25F
MULLAN PASS    SUNNY     72  23  16 CALM      30.23S
DEER LODGE       N/A     64  43  45 CALM      30.22F
EUREKA           N/A     66  37  34 CALM      30.03S
HAMILTON         N/A     68  39  34 S3        30.12S
LIBBY            N/A     64  36  34 CALM      30.03S
PLAINS           N/A     61  40  45 CALM      30.05S
RONAN            N/A     72  44  36 CALM      30.08S
THOMPSON FALLS   N/A     65  35  32 E6        30.07F
$$

MTZ008-052>055-011600-
SOUTHWEST MONTANA

CITY           SKY/WX    TMP DP  RH WIND       PRES   REMARKS
BOZEMAN        SUNNY     65  46  50 E3        30.19R
DILLON         SUNNY     61  40  45 SW12      30.23F
W YELLOWSTONE  SUNNY     50  37  62 CALM      30.37S
THREE FORKS      N/A     63  40  42 CALM      30.15S
TWIN BRIDGES     N/A     59  40  49 S6        30.19S
$$

MTZ009-010-012-014-046-048-049-054-011600-
EAST SLOPES AND CENTRAL MONTANA

CITY           SKY/WX    TMP DP  RH WIND       PRES   REMARKS
CUT BANK       SUNNY     78  32  18 SW13      30.02S
GREAT FALLS    SUNNY     76  34  21 SW13      30.04S
MALMSTROM AFB  SUNNY     73  38  27 SW9       30.03F
HELENA         SUNNY     64  40  41 N5        30.13F
CONRAD           N/A     82  42  24 S7        30.04R
$$

MTZ011-013-016-021-045-047-050-051-011600-
NORTH CENTRAL MONTANA

CITY           SKY/WX    TMP DP  RH WIND       PRES   REMARKS
HAVRE          SUNNY     75  42  30 SW16      29.94S
LEWISTOWN      SUNNY     78  41  26 W3        30.08S
CHINOOK          N/A     72  54  53 SW3       29.92F
FORT BENTON      N/A     79  37  22 SW10G16   29.98F
$$

MTZ017>020-022>027-061-062-011600-
NORTHEAST MONTANA

CITY           SKY/WX    TMP DP  RH WIND       PRES   REMARKS
GLASGOW        SUNNY     71  51  49 SE10      29.92S
JORDAN           N/A     80  45  28 S3        29.94F
SIDNEY         SUNNY    N/A N/A N/A SE5       29.92F
WOLF POINT     SUNNY     68  53  58 SW3       29.93F
MALTA            N/A     69  55  60 MISG      29.88F
PLENTYWOOD       N/A     73  55  53 SE5       29.92S
POPLAR           N/A     68  55  64 SW5       29.93F
SCOBEY           N/A     70  52  52 S5        29.92F
$$

MTZ028>42-056>058-011600-
SOUTHCENTRAL AND SOUTHEAST MONTANA

CITY           SKY/WX    TMP DP  RH WIND       PRES   REMARKS
BAKER          SUNNY     81  48  31 NW5       29.98F
BILLINGS       MOSUNNY   67  40  37 SW13      30.07F
LIVINGSTON     SUNNY     68  41  37 NW12      30.16S
MILES CITY     SUNNY     75  43  31 SW9       29.98S
EKALAKA          N/A     83  39  20 W5        30.00F
FORSYTH          N/A     73  43  33 W6        29.99F
LAUREL           N/A     69  39  33 S8        30.06S
ROUNDUP          N/A     69  41  36 S6        29.96S
$$

REGIONAL REPORTS...DAKOTAS

CITY           SKY/WX    TMP DP  RH WIND       PRES   REMARKS
WILLISTON      SUNNY     73  57  57 S6        29.92F
MINOT          SUNNY     72  54  53 SE5       29.90F
DICKINSON      SUNNY     71  53  52 NW12      29.93S
CROSBY         FAIR      72  57  60 S8        29.91F
BISMARCK       SUNNY     75  58  55 S6        29.88F
GRAND FORKS    MOSUNNY   74  56  53 CALM      29.91F
FARGO          SUNNY     75  55  49 VRB3      29.94F
BUFFALO SD       N/A     84  48  28 W10       29.93S
RAPID CITY     SUNNY     79  59  50 SW9       30.03R
$$

REGIONAL REPORTS...WYOMING/IDAHO/WASHINGTON

CITY           SKY/WX    TMP DP  RH WIND       PRES   REMARKS
GILLETTE       SUNNY     80  45  28 NW7       30.12R
SHERIDAN       SUNNY     77  50  38 CALM      30.10S
BUFFALO WY     SUNNY     80  39  23 N3        30.18S
CODY           SUNNY     75  39  27 W5        30.19S
YELLOWSTONE LA   N/A     56  44  64 E3        30.45R
IDAHO FALLS    SUNNY     62  48  60 NW7       30.21R
SALMON         SUNNY     57  43  58 CALM      30.21S
BOISE          SUNNY     79  37  22 SE8       30.04R
SPOKANE        MOSUNNY   75  33  21 S9        29.98R
$$

REGIONAL REPORTS...ALBERTA

CITY           SKY/WX    TMP DP  RH WIND       PRES   REMARKS
EDMONTON       MOSUNNY   61  54  77 SW2       30.00R
CALGARY        MOSUNNY   66  48  52 CALM      30.00R
LETHBRIDGE     SUNNY     68  45  42 W9        29.97S
MEDICINE HAT   MOSUNNY   68  48  49 SW9       29.91S
WATERTON GATE    N/A     75  41  29 SW10        N/A
CARDSTON         N/A     68  41  37 CALM        N/A
MILK RIVER       N/A     73  39  29 W6          N/A
ONEFOUR          N/A     73  41  31 NW16        N/A
$$

REGIONAL REPORTS...SASKATCHEWAN

CITY           SKY/WX    TMP DP  RH WIND       PRES   REMARKS
SWIFT CURRENT  SUNNY     73  52  46 SW13G21   29.85F
REGINA         MOSUNNY   70  55  60 S7        29.88F
SASKATOON      PTSUNNY   64  57  77 VRB6      29.89S
CYPRESS HILLS    N/A     75  37  25 W7          N/A
VAL MARIE        N/A     70  55  60 SW10        N/A
ROCKGLEN         N/A     72  54  53 S10         N/A
ASSINIBOIA       N/A     59  57  94 W6          N/A
$$



USA.gov is the U.S. government's official web portal to all federal, state and local government web resources and services.